This is the latest recevied weather packets stored in our database for station/object KI5PFS. If no packets are shown the sender has not sent any weather packets the latest 10 day(s).
| Time | Temp. | Humidity | Pressure | Rain* | Wind** | Luminosity | Snow |
|---|---|---|---|---|---|---|---|
| 1788244803 | 28.89° C | 58% | 1012.8 hPa | 0 mm | - | - | - |
| 1788244223 | 28.89° C | 58% | 1012.9 hPa | 0 mm | - | - | - |
| 1788243602 | 28.89° C | 57% | 1012.7 hPa | 0 mm | - | - | - |
| 1788243003 | 28.89° C | 56% | 1012.6 hPa | 0 mm | - | - | - |
| 1788242403 | 30° C | 56% | 1012.6 hPa | 0 mm | - | - | - |
| 1788241803 | 30° C | 56% | 1012.4 hPa | 0 mm | - | - | - |
| 1788241203 | 30° C | 55% | 1012.3 hPa | 0 mm | - | - | - |
| 1788240603 | 30° C | 54% | 1012.3 hPa | 0 mm | - | - | - |
| 1788240003 | 30° C | 54% | 1012.2 hPa | 0 mm | - | - | - |
| 1788239403 | 30° C | 54% | 1012.2 hPa | 0 mm | - | - | - |
| 1788238804 | 30° C | 54% | 1012.1 hPa | 0 mm | - | - | - |
| 1788238203 | 28.89° C | 55% | 1012.1 hPa | 0 mm | - | - | - |
| 1788237603 | 28.89° C | 55% | 1012 hPa | 0 mm | - | - | - |
| 1788237004 | 30° C | 53% | 1012 hPa | 0 mm | - | - | - |
| 1788236405 | 30° C | 52% | 1012 hPa | 0 mm | - | - | - |
| 1788235803 | 30° C | 53% | 1012 hPa | 0 mm | - | - | - |
| 1788235203 | 30° C | 53% | 1011.8 hPa | 0 mm | - | - | - |
| 1788234604 | 30° C | 52% | 1011.9 hPa | 0 mm | - | - | - |
| 1788234003 | 30° C | 53% | 1011.9 hPa | 0 mm | - | - | - |
| 1788233404 | 30° C | 54% | 1011.8 hPa | 0 mm | - | - | - |
| 1788232803 | 31.11° C | 54% | 1011.9 hPa | 0 mm | - | - | - |
| 1788232203 | 31.11° C | 53% | 1011.8 hPa | 0 mm | - | - | - |
| 1788231603 | 31.11° C | 50% | 1011.7 hPa | 0 mm | - | - | - |
| 1788231003 | 31.11° C | 52% | 1011.5 hPa | 0 mm | - | - | - |
| 1788230403 | 31.11° C | 50% | 1011.4 hPa | 0 mm | - | - | - |
* Rain latest hour (hover to see other rain measurements)
** Current wind speed in m/s (hover to see current wind gust speed)